Regional Weather Roundup
Issued by NWS

Home | Current Version | Previous Version | Graphics & Text | Print | Product List | Glossary On
Versions: 1 2 3 4 5 6 7 8 9 10 11 12 13 14 15 16 17 18 19 20 21 22 23 24 25 26 27 28 29 30 31 32 33 34 35 36 37 38 39 40 41 42 43 44 45 46 47 48 49 50
000
ASUS44 KMEG 290900
RWRTN
TENNESSEE HOURLY STATE WEATHER ROUNDUP
NATIONAL WEATHER SERVICE MEMPHIS TN
400 AM CDT FRI AUG 29 2014

TNZ002-004-019-021-049-052-054-088>092-291000-
WEST TENNESSEE

CITY           SKY/WX    TMP DP  RH WIND       PRES   REMARKS
MEMPHIS INTL   PTCLDY    79  70  74 SE5       29.95F
NWS MEMPHIS      N/A     72 N/A N/A MISG        N/A
JACKSON        CLEAR     74  71  91 SE5       29.97S
DYERSBURG      CLEAR     72  63  73 SE3       29.96S
UNION CITY     CLEAR     68  68 100 CALM      29.95F
LEXINGTON      CLEAR     70  68  94 CALM      29.98R
SAVANNAH       CLEAR     66  66 100 CALM      29.98S
$$

TNZ008-025-027-028-033-062-065-066-291000-
NORTH MIDDLE TENNESSEE

CITY           SKY/WX    TMP DP  RH WIND       PRES   REMARKS
NASHVILLE      PTCLDY    72  71  97 S3        30.00F
CLARKSVILLE    CLEAR     71  70  96 CALM      29.98F FOG
CROSSVILLE     CLEAR     72  65  78 CALM      30.09S HAZE
$$

TNZ061-075-076-078-094-096-097-291000-
SOUTH MIDDLE TENNESSEE

CITY           SKY/WX    TMP DP  RH WIND       PRES   REMARKS
FAYETTEVILLE   CLEAR     68  63  83 CALM      30.03S
TULLAHOMA        N/A     64  61  88 CALM      30.05R VSB 1
WINCHESTER     CLEAR     68  66  94 CALM      30.04S
COLUMBIA         N/A     70  70 100 CALM      29.99F
SHELBYVILLE    CLEAR     70  68  94 S3        30.03R
$$

TNZ017-018-042-046-047-291000-
NORTHEAST TENNESSEE

CITY           SKY/WX    TMP DP  RH WIND       PRES   REMARKS
TRI CITIES     CLEAR     66  63  90 NE3       30.09S FOG
ELIZABETHTON   SUNNY     64  63  94 NE3       30.10R
$$

TNZ012-013-036-069-073-074-291000-
CENTRAL EAST TENNESSEE

CITY           SKY/WX    TMP DP  RH WIND       PRES   REMARKS
KNOXVILLE      CLEAR     70  69  97 CALM      30.03S FOG
OAK RIDGE      CLEAR     73  70  90 CALM      30.06R
GATLINBURG     MOSUNNY   70  66  88 CALM      30.04S
$$

TNZ083-085-099-291000-
SOUTHEAST TENNESSEE

CITY           SKY/WX    TMP DP  RH WIND       PRES   REMARKS
CHATTANOOGA    CLEAR     70  65  84 CALM      30.04R
$$

SKY/WX REPORTED AS FAIR MEANS FEW OR NO CLOUDS BELOW
12 THOUSAND FEET.




USA.gov is the U.S. government's official web portal to all federal, state and local government web resources and services.